SB KEPS @ AMSAT $ORB07173.O Orbital Elements 07173.OSCAR
HR AMSAT ORBITAL ELEMENTS FOR OSCAR SATELLITES FROM WA5QGD FORT WORTH,TX June 22, 2007 Send Subscribe/unsubscribe to KEPS at http://www.amsat.org/mailman/listinfo/keps BID: ORB07173.O TO ALL RADIO AMATEURS BT
Satellite: AO-07 Catalog number: 07530 Epoch time: 07172.53083657 Element set: 0908 Inclination: 101.5127 deg RA of node: 210.4108 deg Eccentricity: 0.0011703 Arg of perigee: 247.8733 deg Mean anomaly: 112.1101 deg Mean motion: 12.53572495 rev/day Decay rate: -2.8e-07 rev/day^2 Epoch rev: 49166 Checksum: 270
Satellite: AO-10 Catalog number: 14129 Epoch time: 07173.39957938 Element set: 389 Inclination: 026.4316 deg RA of node: 270.6659 deg Eccentricity: 0.6064119 Arg of perigee: 032.6799 deg Mean anomaly: 353.2812 deg Mean motion: 02.05867418 rev/day Decay rate: 4.4e-07 rev/day^2 Epoch rev: 18067 Checksum: 335
Satellite: UO-11 Catalog number: 14781 Epoch time: 07172.65412610 Element set: 0402 Inclination: 098.1884 deg RA of node: 195.4417 deg Eccentricity: 0.0009380 Arg of perigee: 150.7861 deg Mean anomaly: 209.3842 deg Mean motion: 14.79561483 rev/day Decay rate: 1.71e-06 rev/day^2 Epoch rev: 25039 Checksum: 302
Satellite: RS-15 Catalog number: 23439 Epoch time: 07172.94951946 Element set: 0051 Inclination: 064.8199 deg RA of node: 359.2181 deg Eccentricity: 0.0159220 Arg of perigee: 189.8725 deg Mean anomaly: 169.9056 deg Mean motion: 11.27551787 rev/day Decay rate: -3.9e-07 rev/day^2 Epoch rev: 51423 Checksum: 341
Satellite: FO-29 Catalog number: 24278 Epoch time: 07173.89889138 Element set: 531 Inclination: 098.5528 deg RA of node: 132.7796 deg Eccentricity: 0.0351595 Arg of perigee: 068.5553 deg Mean anomaly: 295.2702 deg Mean motion: 13.52931237 rev/day Decay rate: 3.3e-07 rev/day^2 Epoch rev: 53567 Checksum: 353
Satellite: SO-33 Catalog number: 25509 Epoch time: 07172.45958025 Element set: 0957 Inclination: 031.4278 deg RA of node: 201.5889 deg Eccentricity: 0.0354951 Arg of perigee: 104.7053 deg Mean anomaly: 259.3191 deg Mean motion: 14.28167486 rev/day Decay rate: -1.82e-06 rev/day^2 Epoch rev: 45186 Checksum: 331
Satellite: AO-40 Catalog number: 26609 Epoch time: 07170.72634822 Element set: 0891 Inclination: 005.6615 deg RA of node: 138.6891 deg Eccentricity: 0.7983451 Arg of perigee: 330.9691 deg Mean anomaly: 001.7800 deg Mean motion: 01.25587024 rev/day Decay rate: -2.36e-06 rev/day^2 Epoch rev: 03047 Checksum: 307
Satellite: VO-52 Catalog number: 28650 Epoch time: 07173.24275432 Element set: 657 Inclination: 097.8313 deg RA of node: 243.8479 deg Eccentricity: 0.0026282 Arg of perigee: 235.6142 deg Mean anomaly: 124.2582 deg Mean motion: 14.81329875 rev/day Decay rate: 4.70e-06 rev/day^2 Epoch rev: 11516 Checksum: 311
Satellite: PO-63 Catalog number: 29712 Epoch time: 07173.65460662 Element set: 477 Inclination: 097.9209 deg RA of node: 232.7382 deg Eccentricity: 0.0015740 Arg of perigee: 109.5836 deg Mean anomaly: 250.7076 deg Mean motion: 14.79734510 rev/day Decay rate: 5.38e-06 rev/day^2 Epoch rev: 2414 Checksum: 318
/EX SB KEPS @ AMSAT $ORB07173.D Orbital Elements 07173.MICROS
HR AMSAT ORBITAL ELEMENTS FOR THE MICROSATS FROM WA5QGD FORT WORTH,TX June 22, 2007 Send SUBSCRIBE KEPS/UNSUBSCRIBE KEPS to [email protected] only BID: ORB07173.D TO ALL RADIO AMATEURS BT
Satellite: AO-16 Catalog number: 20439 Epoch time: 07172.56321543 Element set: 0064 Inclination: 098.1950 deg RA of node: 166.8777 deg Eccentricity: 0.0010677 Arg of perigee: 168.7277 deg Mean anomaly: 191.4156 deg Mean motion: 14.31763135 rev/day Decay rate: 7.0e-08 rev/day^2 Epoch rev: 90917 Checksum: 320
Satellite: LO-19 Catalog number: 20442 Epoch time: 07172.88043316 Element set: 0990 Inclination: 098.1795 deg RA of node: 176.5228 deg Eccentricity: 0.0011836 Arg of perigee: 167.0424 deg Mean anomaly: 193.1069 deg Mean motion: 14.32003439 rev/day Decay rate: -2.3e-07 rev/day^2 Epoch rev: 90936 Checksum: 305
Satellite: AO-27 Catalog number: 22825 Epoch time: 07173.44873822 Element set: 713 Inclination: 098.3303 deg RA of node: 143.1006 deg Eccentricity: 0.0007415 Arg of perigee: 247.6568 deg Mean anomaly: 112.3844 deg Mean motion: 14.29211135 rev/day Decay rate: -4.9e-07 rev/day^2 Epoch rev: 71624 Checksum: 288
Satellite: IO-26 Catalog number: 22826 Epoch time: 07172.65519296 Element set: 0411 Inclination: 098.3239 deg RA of node: 143.4105 deg Eccentricity: 0.0007954 Arg of perigee: 246.2233 deg Mean anomaly: 113.8109 deg Mean motion: 14.29457425 rev/day Decay rate: -1.2e-07 rev/day^2 Epoch rev: 71621 Checksum: 291
Satellite: PO-28 Catalog number: 22829 Epoch time: 07172.88886756 Element set: 0689 Inclination: 098.3124 deg RA of node: 144.7999 deg Eccentricity: 0.0008836 Arg of perigee: 216.2867 deg Mean anomaly: 143.7719 deg Mean motion: 14.30157594 rev/day Decay rate: -6.7e-07 rev/day^2 Epoch rev: 71648 Checksum: 378
Satellite: GO-32 Catalog number: 25397 Epoch time: 07173.57385182 Element set: 331 Inclination: 098.4129 deg RA of node: 220.5522 deg Eccentricity: 0.0001099 Arg of perigee: 166.4768 deg Mean anomaly: 193.6451 deg Mean motion: 14.23127647 rev/day Decay rate: 4.8e-07 rev/day^2 Epoch rev: 46492 Checksum: 317
Satellite: MO-46 Catalog number: 26548 Epoch time: 07172.43195214 Element set: 0825 Inclination: 064.5550 deg RA of node: 169.5324 deg Eccentricity: 0.0015002 Arg of perigee: 196.4156 deg Mean anomaly: 163.6426 deg Mean motion: 14.83151656 rev/day Decay rate: -6.2e-07 rev/day^2 Epoch rev: 36416 Checksum: 299
Satellite: NO-44 Catalog number: 26931 Epoch time: 07172.35629672 Element set: 0617 Inclination: 067.0512 deg RA of node: 136.7497 deg Eccentricity: 0.0007654 Arg of perigee: 263.1983 deg Mean anomaly: 096.8264 deg Mean motion: 14.29487152 rev/day Decay rate: -6.5e-07 rev/day^2 Epoch rev: 29869 Checksum: 347
Satellite: SO-50 Catalog number: 27607 Epoch time: 07172.20161349 Element set: 0341 Inclination: 064.5586 deg RA of node: 072.8471 deg Eccentricity: 0.0054839 Arg of perigee: 358.8241 deg Mean anomaly: 001.2729 deg Mean motion: 14.71267935 rev/day Decay rate: 7.6e-07 rev/day^2 Epoch rev: 24171 Checksum: 306
Satellite: CO-55 Catalog number: 27844 Epoch time: 07172.68276117 Element set: 0057 Inclination: 098.7173 deg RA of node: 180.9217 deg Eccentricity: 0.0011067 Arg of perigee: 079.0921 deg Mean anomaly: 281.1498 deg Mean motion: 14.20517751 rev/day Decay rate: 5.2e-07 rev/day^2 Epoch rev: 20611 Checksum: 302
Satellite: CO-57 Catalog number: 27848 Epoch time: 07172.56301668 Element set: 0016 Inclination: 098.7160 deg RA of node: 179.9979 deg Eccentricity: 0.0010755 Arg of perigee: 081.0679 deg Mean anomaly: 279.1717 deg Mean motion: 14.20335678 rev/day Decay rate: 1.1e-07 rev/day^2 Epoch rev: 20607 Checksum: 332
Satellite: AO-51 Catalog number: 28375 Epoch time: 07172.66623326 Element set: 0845 Inclination: 098.1115 deg RA of node: 211.7537 deg Eccentricity: 0.0083509 Arg of perigee: 168.3102 deg Mean anomaly: 192.0049 deg Mean motion: 14.40571873 rev/day Decay rate: 2.9e-07 rev/day^2 Epoch rev: 15636 Checksum: 304
Satellite: CO-56 Catalog number: 28941 Epoch time: 07172.93669283 Element set: 0485 Inclination: 098.1279 deg RA of node: 234.5613 deg Eccentricity: 0.0223641 Arg of perigee: 256.0606 deg Mean anomaly: 101.5680 deg Mean motion: 15.40025005 rev/day Decay rate: 5.388e-05 rev/day^2 Epoch rev: 07416 Checksum: 312
Satellite: HO-59 Catalog number: 29484 Epoch time: 07173.65362809 Element set: 435 Inclination: 098.2822 deg RA of node: 224.2603 deg Eccentricity: 0.0205125 Arg of perigee: 246.0453 deg Mean anomaly: 111.9205 deg Mean motion: 15.51494011 rev/day Decay rate: 1.5601e-04 rev/day^2 Epoch rev: 4192 Checksum: 286
Satellite: NO-60 Catalog number: 29661 Epoch time: 07150.05824307 Element set: 300 Inclination: 051.6186 deg RA of node: 176.5045 deg Eccentricity: 0.0007204 Arg of perigee: 190.7749 deg Mean anomaly: 188.7342 deg Mean motion: 16.52052832 rev/day Decay rate: 1.3324117e-01 rev/day^2 Epoch rev: 2554 Checksum: 290
Satellite: NO-61 Catalog number: 29664 Epoch time: 07173.76260672 Element set: 234 Inclination: 051.6319 deg RA of node: 063.0264 deg Eccentricity: 0.0011912 Arg of perigee: 013.1008 deg Mean anomaly: 347.0462 deg Mean motion: 15.91986880 rev/day Decay rate: 2.4789e-04 rev/day^2 Epoch rev: 2904 Checksum: 304
Satellite: CP4 Catalog number: 31122 Epoch time: 07173.62119596 Element set: 65 Inclination: 098.0822 deg RA of node: 246.7203 deg Eccentricity: 0.0085995 Arg of perigee: 009.2754 deg Mean anomaly: 350.9975 deg Mean motion: 14.55013027 rev/day Decay rate: 5.97e-06 rev/day^2 Epoch rev: 964 Checksum: 312
Satellite: CP3 Catalog number: 31128 Epoch time: 07172.73201644 Element set: 0059 Inclination: 098.0827 deg RA of node: 245.5376 deg Eccentricity: 0.0102659 Arg of perigee: 012.8170 deg Mean anomaly: 347.5610 deg Mean motion: 14.51841437 rev/day Decay rate: -4.8e-07 rev/day^2 Epoch rev: 00948 Checksum: 292
Satellite: LIBERT Catalog number: 31129 Epoch time: 07173.69298572 Element set: 170 Inclination: 098.0822 deg RA of node: 246.4664 deg Eccentricity: 0.0102797 Arg of perigee: 009.7129 deg Mean anomaly: 350.6004 deg Mean motion: 14.51932852 rev/day Decay rate: 3.84e-06 rev/day^2 Epoch rev: 960 Checksum: 302
/EX SB KEPS @ AMSAT $ORB07173.W Orbital Elements 07173.WEATHER
HR AMSAT ORBITAL ELEMENTS FOR WEATHER SATELLITES FROM WA5QGD FORT WORTH,TX June 22, 2007 Send SUBSCRIBE KEPS/UNSUBSCRIBE KEPS to [email protected] only BID: ORB07173.W TO ALL RADIO AMATEURS BT
Satellite: NOAA-10 Catalog number: 16969 Epoch time: 07172.92976277 Element set: 0700 Inclination: 098.7441 deg RA of node: 190.1149 deg Eccentricity: 0.0012695 Arg of perigee: 150.0520 deg Mean anomaly: 210.1389 deg Mean motion: 14.27327845 rev/day Decay rate: 2.5e-07 rev/day^2 Epoch rev: 07990 Checksum: 309
